Flag for Colombia Weather past 2 weeks in Manizales, Colombia

Now
54 °F

Fog.


Feels Like: 54 °F
Forecast: 54 / 75 °F
Wind: 2 mph from North

Location: Rionegro / J. M. Cordova

Current Time: Jun 30, 2015 at 4:27:32 AM

Latest Report: Jun 30, 2015 at 4:00 AM


Visibility: 1 mi

Pressure: 30.31 "Hg

Humidity: 100%

Dew point: 54 °F

Location of ManizalesLocation

Historic Weather in Manizales — Graph

°F

Manizales temperature yesterday

Maximum temperature yesterday: 72 °F (at 2:00 PM)
Minimum temperature yesterday: 52 °F (at 4:00 AM)
Average temperature yesterday: 62 °F

Past Weeks' High & Low Weather Summary

 TemperatureHumidityPressure
High81 °F (Jun 23, 3:00 PM)100% (Jun 21, 4:00 AM)30.36 "Hg (Jun 21, 4:00 AM)
Low50 °F (Jun 25, 3:00 AM)36% (Jun 20, 4:00 PM)29.91 "Hg (Jun 23, 3:00 PM)
Average63 °F72%30.28 "Hg
* Reported Jun 15 3:00 AM — Jun 30 3:00 AM, Manizales, Weather by CustomWeather, © 2015

Note: Actual official high and low records may vary slightly from our data, if they occured in-between our weather recording intervals... More about our weather records

Advertising

Manizales weather history for previous 24 hours

 ConditionsComfort  
Time TempWeatherWind HumidityBarometerVisibility
3:00 AM
Tue, Jun 30
54 °FPassing clouds.3 mph94%30.29 "HgN/A
1:00 AM57 °FPassing clouds.No wind88%30.33 "HgN/A
12:00 AM57 °FOvercast.No wind94%30.36 "HgN/A
11:00 PM
Mon, Jun 29
57 °FOvercast.5 mph94%30.36 "HgN/A
10:00 PM59 °FOvercast.No wind88%30.35 "HgN/A
9:00 PM59 °FPassing clouds.No wind82%30.33 "HgN/A
8:00 PM63 °FPassing clouds.No wind83%30.31 "HgN/A
7:00 PM64 °FPartly cloudy.5 mph64%30.27 "HgN/A
6:00 PM66 °FPartly sunny.7 mph60%30.24 "HgN/A
5:00 PM68 °FPartly sunny.8 mph49%30.23 "HgN/A
4:00 PM72 °FPartly sunny.15 mph44%30.22 "HgN/A
3:00 PM70 °FBroken clouds.14 mph46%30.23 "HgN/A
2:00 PM72 °FScattered clouds.14 mph44%30.26 "HgN/A
1:00 PM70 °FPartly sunny.14 mph43%30.28 "HgN/A
12:00 PM70 °FOvercast.12 mph46%30.31 "HgN/A
11:00 AM70 °FPartly sunny.12 mph50%30.32 "HgN/A
10:00 AM66 °FOvercast.7 mph64%30.33 "HgN/A
9:00 AM64 °FOvercast.No wind68%30.31 "HgN/A
8:00 AM57 °FFog.No wind88%30.30 "HgN/A
7:00 AM52 °FFog.No wind100%30.28 "HgN/A
6:00 AM54 °FFog.No wind94%30.28 "HgN/A
5:00 AM52 °FPassing clouds.No wind94%30.27 "HgN/A
4:00 AM52 °FPassing clouds.No wind94%30.27 "HgN/A
Weather by CustomWeather, © 2015

See weather overviewHow to use our weather pages